| time (UTC) | temp F | wind direction | speed knots | gust knots | rain 1hr in | rain 24hr in | rain mn in | humidity % | barometer mb |
| 20260507114553 | 35 | 316 | 0.0 | 2.6 | 0.00 | 0.00 | 0.00 | 63 | 1022.4 |
| 20260507113053 | 35 | 282 | 0.9 | 2.6 | 0.00 | 0.00 | 0.00 | 63 | 1022.3 |
| 20260507111551 | 34 | 292 | 0.0 | 3.5 | 0.00 | 0.00 | 0.00 | 64 | 1022.4 |
| 20260507110151 | 34 | 358 | 0.0 | 0.9 | 0.00 | 0.00 | 0.00 | 65 | 1022.3 |
| 20260507104552 | 34 | 2 | 0.0 | 3.5 | 0.00 | 0.00 | 0.00 | 64 | 1022.5 |
| 20260507103114 | 35 | 177 | 1.7 | 9.6 | 0.00 | 0.00 | 0.00 | 61 | 1022.4 |
| 20260507101545 | 37 | 233 | 7.0 | 11.3 | 0.00 | 0.00 | 0.00 | 59 | 1022.2 |
| 20260507100058 | 37 | 230 | 13.9 | 19.1 | 0.00 | 0.00 | 0.00 | 58 | 1022.2 |
| 20260507094544 | 37 | 226 | 14.8 | 20.0 | 0.00 | 0.00 | 0.00 | 58 | 1022.2 |
| 20260507093041 | 37 | 235 | 17.4 | 21.7 | 0.00 | 0.00 | 0.00 | 58 | 1022.3 |
| 20260507091544 | 37 | 239 | 14.8 | 20.9 | 0.00 | 0.00 | 0.00 | 59 | 1022.3 |
| 20260507090046 | 37 | 232 | 14.8 | 22.6 | 0.00 | 0.00 | 0.00 | 60 | 1022.2 |
| 20260507084545 | 37 | 233 | 13.9 | 18.2 | 0.00 | 0.00 | 0.00 | 63 | 1022.3 |
| 20260507083037 | 37 | 226 | 12.2 | 19.1 | 0.00 | 0.00 | 0.00 | 60 | 1022.3 |
| 20260507081534 | 37 | 218 | 15.6 | 21.7 | 0.00 | 0.00 | 0.00 | 58 | 1022.2 |
| 20260507080032 | 37 | 215 | 14.8 | 20.9 | 0.00 | 0.00 | 0.00 | 57 | 1022.3 |
| 20260507074529 | 38 | 226 | 16.5 | 23.5 | 0.00 | 0.00 | 0.00 | 56 | 1022.3 |
| 20260507073027 | 39 | 231 | 17.4 | 21.7 | 0.00 | 0.00 | 0.00 | 54 | 1022.4 |
| 20260507071526 | 39 | 199 | 14.8 | 19.1 | 0.00 | 0.00 | 0.00 | 53 | 1022.5 |
| 20260507070021 | 39 | 221 | 12.2 | 15.6 | 0.00 | 0.00 | 0.00 | 51 | 1022.6 |
| 20260507064517 | 40 | 216 | 11.3 | 16.5 | 0.00 | 0.00 | 0.00 | 49 | 1022.6 |
| 20260507063014 | 41 | 215 | 10.4 | 14.8 | 0.00 | 0.00 | 0.00 | 48 | 1022.7 |
| 20260507061513 | 40 | 230 | 11.3 | 15.6 | 0.00 | 0.00 | 0.00 | 48 | 1022.7 |
| 20260507060017 | 41 | 205 | 10.4 | 14.8 | 0.00 | 0.00 | 0.00 | 48 | 1022.8 |
| 20260507054507 | 41 | 210 | 9.6 | 13.0 | 0.00 | 0.00 | 0.00 | 47 | 1022.9 |
| 20260507053007 | 41 | 207 | 8.7 | 11.3 | 0.00 | 0.00 | 0.00 | 46 | 1022.9 |
| 20260507051503 | 41 | 196 | 8.7 | 11.3 | 0.00 | 0.00 | 0.00 | 47 | 1023.0 |
| 20260507050100 | 41 | 195 | 7.8 | 11.3 | 0.00 | 0.00 | 0.00 | 46 | 1023.1 |
| 20260507044604 | 41 | 199 | 9.6 | 12.2 | 0.00 | 0.00 | 0.00 | 46 | 1023.1 |
| 20260507043058 | 41 | 195 | 9.6 | 12.2 | 0.00 | 0.00 | 0.00 | 45 | 1023.2 |
| 20260507041604 | 41 | 181 | 8.7 | 11.3 | 0.00 | 0.00 | 0.00 | 45 | 1023.4 |
| 20260507040056 | 42 | 178 | 7.8 | 11.3 | 0.00 | 0.00 | 0.00 | 44 | 1023.5 |
| 20260507034557 | 43 | 145 | 4.3 | 6.1 | 0.00 | 0.00 | 0.00 | 41 | 1023.5 |
| 20260507033054 | 44 | 141 | 3.5 | 6.1 | 0.00 | 0.00 | 0.00 | 40 | 1023.7 |
| 20260507031552 | 44 | 126 | 2.6 | 4.3 | 0.00 | 0.00 | 0.00 | 39 | 1023.7 |
| 20260507030051 | 44 | 121 | 1.7 | 2.6 | 0.00 | 0.00 | 0.00 | 39 | 1023.7 |
| 20260507024553 | 44 | 143 | 0.9 | 1.7 | 0.00 | 0.00 | 0.00 | 39 | 1023.7 |
| 20260507023050 | 44 | 150 | 0.0 | 2.6 | 0.00 | 0.00 | 0.00 | 40 | 1023.7 |
| 20260507021601 | 45 | 115 | 0.0 | 3.5 | 0.00 | 0.00 | 0.00 | 40 | 1023.7 |
| 20260507020107 | 46 | 100 | 2.6 | 5.2 | 0.00 | 0.00 | 0.00 | 38 | 1023.7 |
| 20260507014616 | 47 | 37 | 0.9 | 4.3 | 0.00 | 0.00 | 0.00 | 38 | 1023.7 |
| 20260507013051 | 48 | 350 | 0.0 | 1.7 | 0.00 | 0.00 | 0.00 | 37 | 1023.7 |
| 20260507011557 | 48 | 354 | 3.5 | 8.7 | 0.00 | 0.00 | 0.00 | 36 | 1023.7 |
| 20260507010047 | 49 | 311 | 0.0 | 4.3 | 0.00 | 0.00 | 0.00 | 36 | 1023.8 |
| 20260507004546 | 49 | 334 | 3.5 | 9.6 | 0.00 | 0.00 | 0.00 | 36 | 1023.9 |
| 20260507003044 | 49 | 352 | 5.2 | 8.7 | 0.00 | 0.00 | 0.00 | 36 | 1024.0 |
| 20260507001558 | 49 | 318 | 0.9 | 11.3 | 0.00 | 0.00 | 0.00 | 36 | 1024.1 |
| 20260507000056 | 49 | 19 | 3.5 | 13.0 | 0.00 | 0.00 | 0.00 | 35 | 1024.2 |
| 20260506234600 | 49 | 36 | 7.8 | 12.2 | 0.00 | 0.00 | 0.00 | 35 | 1024.3 |
| 20260506233046 | 49 | 18 | 6.1 | 13.9 | 0.00 | 0.00 | 0.00 | 37 | 1024.4 |
| 20260506231538 | 49 | 349 | 5.2 | 12.2 | 0.00 | 0.00 | 0.00 | 36 | 1024.6 |
| 20260506230036 | 49 | 312 | 2.6 | 8.7 | 0.00 | 0.00 | 0.00 | 36 | 1024.7 |
| 20260506224535 | 49 | 302 | 2.6 | 6.1 | 0.00 | 0.00 | 0.00 | 37 | 1024.8 |
| 20260506223033 | 49 | 313 | 1.7 | 9.6 | 0.00 | 0.00 | 0.00 | 37 | 1025.0 |
| 20260506221536 | 50 | 277 | 1.7 | 7.8 | 0.00 | 0.00 | 0.00 | 40 | 1025.1 |
| 20260506220033 | 49 | 351 | 1.7 | 12.2 | 0.00 | 0.00 | 0.00 | 39 | 1025.3 |
| 20260506214529 | 48 | 344 | 3.5 | 7.0 | 0.00 | 0.00 | 0.00 | 38 | 1025.4 |
| 20260506213026 | 48 | 300 | 0.9 | 6.1 | 0.00 | 0.00 | 0.00 | 40 | 1025.7 |
| 20260506211537 | 47 | 297 | 0.0 | 12.2 | 0.00 | 0.00 | 0.00 | 42 | 1025.9 |
| 20260506210032 | 48 | 20 | 2.6 | 9.6 | 0.00 | 0.00 | 0.00 | 40 | 1026.2 |
| 20260506204522 | 48 | 268 | 1.7 | 8.7 | 0.00 | 0.00 | 0.00 | 42 | 1026.4 |
| 20260506203018 | 47 | 37 | 7.0 | 10.4 | 0.00 | 0.00 | 0.00 | 40 | 1026.6 |
| 20260506201515 | 46 | 359 | 7.0 | 12.2 | 0.00 | 0.00 | 0.00 | 40 | 1026.8 |
| 20260506200014 | 46 | 20 | 8.7 | 16.5 | 0.00 | 0.00 | 0.00 | 42 | 1027.0 |
| 20260506194511 | 46 | 91 | 0.0 | 5.2 | 0.00 | 0.00 | 0.00 | 45 | 1027.1 |
| 20260506193011 | 46 | 300 | 1.7 | 12.2 | 0.00 | 0.00 | 0.00 | 42 | 1027.2 |
| 20260506191507 | 48 | 335 | 3.5 | 13.0 | 0.00 | 0.00 | 0.00 | 41 | 1027.5 |
| 20260506190006 | 46 | 349 | 4.3 | 13.9 | 0.00 | 0.00 | 0.00 | 41 | 1027.6 |
| 20260506184503 | 47 | 323 | 4.3 | 10.4 | 0.00 | 0.00 | 0.00 | 40 | 1027.9 |
| 20260506183105 | 45 | 32 | 4.3 | 11.3 | 0.00 | 0.00 | 0.00 | 43 | 1028.1 |
| 20260506181606 | 45 | 290 | 3.5 | 14.8 | 0.00 | 0.00 | 0.00 | 44 | 1028.4 |
| 20260506180057 | 44 | 300 | 3.5 | 11.3 | 0.00 | 0.00 | 0.00 | 46 | 1028.6 |
| 20260506174555 | 44 | 6 | 2.6 | 14.8 | 0.00 | 0.00 | 0.00 | 49 | 1028.9 |
| 20260506173120 | 42 | 321 | 4.3 | 10.4 | 0.00 | 0.00 | 0.00 | 46 | 1029.1 |
| 20260506171557 | 42 | 32 | 5.2 | 12.2 | 0.00 | 0.00 | 0.00 | 46 | 1029.2 |
| 20260506170105 | 42 | 20 | 2.6 | 11.3 | 0.00 | 0.00 | 0.00 | 49 | 1029.4 |
| 20260506164550 | 42 | 325 | 0.9 | 7.0 | 0.00 | 0.00 | 0.00 | 48 | 1029.5 |
| 20260506163054 | 41 | 4 | 0.0 | 7.0 | 0.00 | 0.00 | 0.00 | 51 | 1029.7 |
| 20260506161647 | 39 | 316 | 0.0 | 6.1 | 0.00 | 0.00 | 0.00 | 53 | 1029.9 |
| 20260506160046 | 40 | 307 | 2.6 | 8.7 | 0.00 | 0.00 | 0.00 | 50 | 1030.0 |
| 20260506154603 | 39 | 345 | 1.7 | 7.8 | 0.00 | 0.00 | 0.00 | 53 | 1030.1 |
| 20260506153041 | 38 | 347 | 3.5 | 8.7 | 0.00 | 0.00 | 0.00 | 51 | 1030.1 |
| 20260506151541 | 37 | 44 | 0.0 | 7.0 | 0.00 | 0.00 | 0.00 | 56 | 1030.2 |
| 20260506150040 | 38 | 19 | 3.5 | 9.6 | 0.00 | 0.00 | 0.00 | 54 | 1030.3 |
| 20260506144549 | 38 | 321 | 1.7 | 7.0 | 0.00 | 0.00 | 0.00 | 54 | 1030.2 |
| 20260506143038 | 38 | 36 | 0.9 | 5.2 | 0.00 | 0.00 | 0.00 | 54 | 1030.3 |
| 20260506141635 | 37 | 50 | 0.0 | 3.5 | 0.00 | 0.00 | 0.00 | 57 | 1030.3 |
| 20260506140036 | 36 | 34 | 0.0 | 1.7 | 0.00 | 0.00 | 0.00 | 59 | 1030.4 |
| 20260506134532 | 34 | 40 | 0.0 | 0.9 | 0.00 | 0.00 | 0.00 | 63 | 1030.4 |
| 20260506133039 | 32 | 69 | 0.0 | 0.0 | 0.00 | 0.00 | 0.00 | 68 | 1030.2 |
| 20260506131530 | 31 | 302 | 0.0 | 0.0 | 0.00 | 0.00 | 0.00 | 70 | 1030.4 |
| 20260506130029 | 30 | 290 | 0.0 | 0.0 | 0.00 | 0.00 | 0.00 | 71 | 1030.4 |
| 20260506124526 | 30 | 38 | 0.0 | 0.0 | 0.00 | 0.00 | 0.00 | 69 | 1030.2 |
| 20260506123024 | 31 | 269 | 0.0 | 0.0 | 0.00 | 0.00 | 0.00 | 66 | 1029.9 |
| 20260506121522 | 31 | 269 | 0.0 | 0.0 | 0.00 | 0.00 | 0.00 | 66 | 1029.8 |
| 20260506120023 | 30 | 269 | 0.0 | 0.0 | 0.00 | 0.00 | 0.00 | 66 | 1029.5 |